STARLINK-37123

Last updated on Sun Apr 12 2026 00:02:07 GMT+0000 (Coordinated Universal Time)

1 68275U 26055P 26101.44371558 .00308182 00000+0 15007-2 0 9999 2 68275 53.1577 173.0322 0001157 138.8493 221.2617 15.81005162 4864
UTC large
Height (km)
Speed (km/s)
/
Latitude / Longitude
Inclination (degrees)
Orbital Period (minutes)
Azimuth
Elevation
Range (km)
Doppler Factor

Next 0 passes for location: London (51.5072 / 0.1276)

Sorry there are no passes over London.
STARLINK-37123